STARLINK-34040, 63839

Orbit data source: Space-Track

STARLINK-34040, 63839 is a payload satellite owned by SpaceX/Seattle (US) in LEO that was launched on Wed, 07 May 2025 UTC via an FALCON 9 launch vehicle from the Air Force Eastern Test Range (AFETR). Payload-class satellites include a variety of spacecraft equipped with specific instruments for various scientific and technological missions. These include communications satellites like Starlink; space stations such as the ISS; scientific satellites like the Hubble; Earth observation satellites from companies like Planet Labs, Umbra, and HawkEye 360; GPS; miniature CubeSats for education and research; and military/defense satellites.

Loading next visibility...
Identifier
63839, 2025-093D
Orbit
LEO
Country
Flag of USUS
Related business
Manufacturer
SpaceX/Seattle
Mission
Operational Commercial Communications
Bus & Motor
STARLINK V2MO, Unknown motor
Mass
575 kg wet, ~530 kg dry
Launch date (UTC)
2025-05-07 (7 months ago)
Launch vehicle
FALCON 9
Launch site
Air Force Eastern Test Range (AFETR)
Object type
Payload
Rocket body
Debris
Shape & HBR
Box + 2 Pan, 17.7 m
Radar Cross Section
36.964 m², Large (>1 m²)

Expand to show TLE details & history
Last TLE update: 6 hours ago

TLE from 6 hours ago
0 STARLINK-34040
1 63839U 25093D   25349.93339862  .00042876  00000-0  15556-2 0  9995
2 63839  42.9932 190.8364 0000604 279.7517  80.3266 15.27642184 35169
Epoch: 2025-12-15T22:24Z
TLE epoch observation values (Epoch: 2025-12-15T22:24:05.640Z)
Latitude
-0.00005°
Longitude
129.98799°
Altitude
482.568 km
Speed
7.626 km/s
True Right ascension
12h 43m 20s
True Declination
0° 00' 00"
Sunlit
Object was in daylight at epoch
Visualization orbit readout
Latitude
Unknown
Longitude
Unknown
Altitude
Unknown
Speed
Unknown
Apparent Right ascension
Unknown
Apparent Declination
Unknown
Sunlit
N/A
Visualization observer readout
Local Sidereal Time
03:12:45
Azimuth
Unknown
Elevation
Unknown
Doppler factor
Unknown
Orbital elements
Apogee altitude
485.224 km
Perigee altitude
484.395 km
Semi-major axis
6,862.946 km
Eccentricity
0.00006
Inclination
42.9932°
RAAN
190.8364°
Arg. of periapsis
279.7517°
True anomaly
80.33342°
Mean anomaly
80.3266°
Eccentric anomaly
80.33001°
Mean motion
3.81748 °/min
Orbital period
94.3 mins
BSTAR
0.0015556
Loading maneuver chart data...
Computing Atmospheric mass density...
Loading historical data...
Loading historical data...
Loading historical data...
Loading historical data...
Loading historical data...
Loading historical data...
Loading historical data...

Documentation

Showing up to 5 results
|